Cosmos 614 Rocket - Orbit

View from above orbital plane
View from above orbital plane
View from above satellite
View from above satellite

Ground track
Ground track

The orbit data is extracted from the following two-line orbital elements,

1 06966U 73098B   13168.85405884  .00000125  00000-0  45741-4 0    23
2 06966 074.0573 048.1090 0021225 029.1336 047.8370 14.42236987 74953
Epoch (UTC): 17 June 2013 20:29:50
Eccentricity: 0.0021225
inclination: 74.0573°
perigee height: 736 km
apogee height: 766 km
right ascension of ascending node: 48.1090°
argument of perigee: 29.1336°
revolutions per day: 14.42236987
mean anomaly at epoch: 47.8370°
orbit number at epoch: 7495

The dashed part of the orbit path shows where the satellite is in the earth's shadow,  

Developed and maintained by Chris Peat, Heavens-Above GmbH. Please read the updated FAQ before sending e-mail. Imprint. DLR